Weather History for V.C. Bird, Antigua

Change the Weather History Date:

Thursday, February 20, 2014

  Actual Average Record
Temperature  
Mean Temperature 79 °F -  
Max Temperature 83 °F 81 °F 84 °F (1997)
Min Temperature 75 °F 72 °F 68 °F (2011)
Cooling Degree Days 14    
Growing Degree Days 29 (Base 50)    
Moisture  
Dew Point 67 °F    
Average Humidity 66    
Maximum Humidity 74    
Minimum Humidity 53    
Precipitation  
Precipitation 0.04 in - - ()
Sea Level Pressure  
Sea Level Pressure 30.03 in    
Wind  
Wind Speed 12 mph ()    
Max Wind Speed 17 mph    
Max Gust Speed -    
Visibility 8.6 miles    
Events      
Averages and records for this station are not official NWS values.
T = Trace of Precipitation, MM = Missing Value Source: Averaged Metar Reports

Daily Weather History Graph

Daily Weather History Graph

Search for Another Location

Airport:

Trip Planner

Search our weather history database for the weather conditions in past years. The results will help you decide how hot, cold, wet, or windy it might be!

Date:

Astronomy

Feb. 20, 2014 Rise Set
Actual Time 6:30 AM AST 6:11 PM AST
Civil Twilight 6:08 AM AST 6:33 PM AST
Nautical Twilight 5:43 AM AST 6:58 PM AST
Astronomical Twilight 5:18 AM AST 7:23 PM AST
Moon 11:04 PM AST (2/20) 10:02 AM AST (2/20)
Length of Visible Light 12h 24m
Length of Day
11h 40m
Waning Gibbous, 71% of the Moon is Illuminated
Feb 20
Waning Gibbous
Feb 22
Last Quarter
Mar 1
New
Mar 8
First Quarter
Mar 16
Full

Hourly Weather History & Observations

Time (AST) Temp. Heat Index Dew Point Humidity Pressure Visibility Wind Dir Wind Speed Gust Speed Precip Events Conditions
12:00 AM 77.0 °F - 66.2 °F 69% 30.04 in 6.2 mi East 11.5 mph - N/A   Partly Cloudy
1:00 AM 77.0 °F - 66.2 °F 69% 30.04 in 6.2 mi East 12.7 mph - N/A   Partly Cloudy
2:00 AM 76 °F - 65 °F 61% 30.02 in 17 mi East 11.5 mph - -   Haze
2:00 AM 75.2 °F - 64.4 °F 69% 30.01 in 6.2 mi East 11.5 mph - N/A   Partly Cloudy
3:00 AM 77.0 °F - 64.4 °F 65% 30.01 in 6.2 mi East 16.1 mph - N/A   Partly Cloudy
4:00 AM 77.0 °F - 66.2 °F 69% 30.01 in 6.2 mi East 17.3 mph - N/A   Partly Cloudy
5:00 AM 76 °F - 67 °F 65% 30.01 in 17 mi East 16.1 mph - -   Haze
5:00 AM 75.2 °F - 66.2 °F 73% 30.01 in 6.2 mi East 16.1 mph - N/A   Partly Cloudy
6:00 AM 77.0 °F - 66.2 °F 69% 30.01 in 6.2 mi East 15.0 mph - N/A   Partly Cloudy
7:00 AM 77.0 °F - 68.0 °F 74% 30.04 in 6.2 mi East 12.7 mph - N/A   Scattered Clouds
8:00 AM 78 °F - 69 °F 66% 30.06 in 17 mi East 12.7 mph - -   Haze
8:00 AM 77.0 °F - 68.0 °F 74% 30.04 in 6.2 mi East 12.7 mph - N/A   Scattered Clouds
9:00 AM 80.6 °F 83.2 °F 68.0 °F 65% 30.06 in 6.2 mi East 12.7 mph - N/A   Scattered Clouds
10:00 AM 80.6 °F 82.7 °F 66.2 °F 61% 30.06 in 6.2 mi East 13.8 mph - N/A   Partly Cloudy
11:00 AM 82 °F - 68 °F 53% 30.09 in 17 mi East 12.7 mph - -   Haze
11:00 AM 82.4 °F 85.4 °F 68.0 °F 62% 30.06 in 6.2 mi East 12.7 mph - N/A   Scattered Clouds
12:00 PM 80.6 °F 83.2 °F 68.0 °F 65% 30.06 in 6.2 mi East 13.8 mph - N/A   Scattered Clouds
1:00 PM 82.4 °F 85.4 °F 68.0 °F 62% 30.04 in 6.2 mi East 13.8 mph - N/A   Scattered Clouds
2:00 PM 82 °F - 68 °F 53% 30.02 in 17 mi East 13.8 mph - -   Haze
2:00 PM 82.4 °F 85.4 °F 68.0 °F 62% 30.01 in 6.2 mi East 13.8 mph - N/A   Scattered Clouds
3:00 PM 80.6 °F 83.2 °F 68.0 °F 65% 30.01 in 6.2 mi East 15.0 mph - N/A   Scattered Clouds
4:00 PM 80.6 °F 82.7 °F 66.2 °F 61% 29.98 in 6.2 mi East 15.0 mph - N/A   Partly Cloudy
5:00 PM 80 °F - 67 °F 56% 30.01 in 17 mi East 10.4 mph - -   Haze
5:00 PM 78.8 °F - 68.0 °F 69% 30.01 in 6.2 mi East 10.4 mph - N/A   Scattered Clouds
6:00 PM 77.0 °F - 68.0 °F 74% 30.01 in 6.2 mi East 12.7 mph - N/A   Partly Cloudy
7:00 PM 77.0 °F - 66.2 °F 69% 30.04 in 6.2 mi East 15.0 mph - N/A   Partly Cloudy
8:00 PM 77 °F - 66 °F 61% 30.05 in 17 mi ENE 16.1 mph - -   Haze
8:00 PM 77.0 °F - 66.2 °F 69% 30.04 in 6.2 mi ENE 16.1 mph - N/A   Partly Cloudy
9:00 PM 77.0 °F - 66.2 °F 69% 30.06 in 6.2 mi ENE 13.8 mph - N/A   Partly Cloudy
10:00 PM 77.0 °F - 66.2 °F 69% 30.06 in 6.2 mi East 15.0 mph - N/A   Partly Cloudy
11:00 PM 77.0 °F - 66.2 °F 69% 30.06 in 6.2 mi East 12.7 mph - N/A   Partly Cloudy